Regional Weather Roundup
Issued by NWS

Home | Current Version | Previous Version | Text Only | Print | Product List | Glossary Off
Versions: 1 2 3 4 5 6 7 8 9 10 11 12 13 14 15 16 17 18 19 20 21 22 23 24 25 26 27 28 29 30 31 32 33 34 35 36 37 38 39 40 41 42 43 44 45 46 47 48 49 50

000
ASUS45 KCYS 292010
RWRWY

WYOMING REGIONAL WEATHER ROUNDUP
NATIONAL WEATHER SERVICE CHEYENNE WY
200 PM MDT SUN MAR 29 2015

NOTE:  "FAIR" INDICATES FEW OR NO CLOUDS BELOW 12,000 FEET
WITH NO SIGNIFICANT WEATHER AND/OR OBSTRUCTIONS TO VISIBILITY.

WYZ001-292100-
YELLOWSTONE NATIONAL PARK

CITY           SKY/WX    TMP DP  RH WIND       PRES   REMARKS
LK YELLOWSTONE   N/A     44  11  26 VRB6      30.28F
W YELLOWSTONE  NOT AVBL

$$
WYZ002>013-054>058-071-098>099-292100-
NORTHERN WYOMING

CITY           SKY/WX    TMP DP  RH WIND       PRES   REMARKS
JACKSON        SUNNY     46  27  46 VRB5      30.29F
CODY           FAIR      55  16  21 CALM      30.16F
GREYBULL       FAIR      59  19  21 SE9       30.16F
WORLAND        FAIR      62  15  16 VRB3      30.14F
SHERIDAN       FAIR      59  25  27 NW6       30.12F
BUFFALO        FAIR      58  24  27 N9        30.12F
GILLETTE       FAIR      58  25  28 S8G21     30.12F
HULETT         FAIR      57  27  30 SW9G20    30.14F
NEWCASTLE      FAIR      55  21  26 NW17G23   30.16F

$$
WYZ014>020-022>026-101>103-292100-
CENTRAL WYOMING

CITY           SKY/WX    TMP DP  RH WIND       PRES   REMARKS
BIG PINEY      FAIR      53   7  15 VRB3      30.28F
PINEDALE       FAIR      50   9  18 NW9       30.30F
DUBOIS         FAIR      54   1  12 NW22G29   30.22F
LANDER         FAIR      60  19  20 N8        30.15F
RIVERTON       FAIR      59  12  15 MISG      30.17F
CASPER         FAIR      59  17  19 SW14G23   30.16F
DOUGLAS        FAIR      60  21  22 W7        30.16F

$$
WYZ021-027>030-104>119-292100-
SOUTHERN WYOMING

CITY           SKY/WX    TMP DP  RH WIND       PRES   REMARKS
EVANSTON       FAIR      57  11  16 W9G24     30.30F
KEMMERER       FAIR      54   7  15 SW12G18   30.30F
FORT BRIDGER   FAIR      60  10  14 NW9       30.32F
ROCK SPRINGS   FAIR      55  12  18 W8        30.27F
DIXON          FAIR      59  15  18 W10G16    30.30F
RAWLINS        FAIR      57  10  15 SW14G25   30.24F
SARATOGA       FAIR      59  10  14 W18G24    30.26F
LARAMIE        FAIR      54  12  18 VRB5      30.23F
CHEYENNE       FAIR      60  10  14 NW13      30.20F
TORRINGTON     FAIR      61  23  23 W13       30.19F
PINE BLUFFS    FAIR      55  21  26 N12G20    30.23F

$$


USA.gov is the U.S. government's official web portal to all federal, state and local government web resources and services.